Погода в Фредерисии

Дания     55°34′13″N   9°45′11″E
темп.,
°C
ветер,
м/с
пор.,
м/с
влажн.,
%
обл.,
%
осадки,
мм/ч
давл.,
гПа
погр.,
м
12 августа, пт
пт1223:00+20ююз22685 0.0 102324
02:00+19ююв22715 0.0 102330
05:00+19юв23670 0.0 102370
08:00+19юв22620 0.0 102390
11:00+21всв22561 0.0 1023206
14:00+21св33575 0.0 1022320
17:00+21всв01555 0.0 1021158
20:00+21всв22625 0.0 102118
13 августа, сб
сб1323:00+20юв22645 0.0 102123
02:00+20вюв226555 0.0 102115
05:00+19вюв336370 0.0 102061
08:00+20юв236852 0.0 1020102
11:00+22ю236018 0.0 1020150
14:00+23юв23557 0.0 1019226
17:00+23в335479 0.0 1018192
20:00+22ююз1165100 0.0 101813
14 августа, вс
вс1423:00+21зсз016593 0.0 101811
02:00+20юв226677 0.0 101712
05:00+20юв33670 0.0 101729
08:00+21юв34702 0.0 101665
11:00+23вюв34625 0.0 1015250
14:00+24ю24606 0.0 1014404
17:00+23св2162100 0.0 1013228
20:00+23вюв2362100 0.0 101268
15 августа, пн
пн1523:00+21вюв5972100 0.0 1011153
02:00+20в497799 0.0 1010191
05:00+19всв478198 0.0 1009176
08:00+19в588394 0.2 1008260
11:00+22в577538 0.0 1007214
14:00+23всв666917 0.1 1006311
17:00+22всв677416 1.5 1005393
20:00+21юв1282100 7.0 100499
16 августа, вт
вт1623:00+19юв469233 4.0 1004144
02:00+20юв359279 4.6 100399
05:00+19ююв1195100 2.4 100450
08:00+20с019291 2.5 100460
11:00+22зюз44782 0.1 1004189
14:00+25зюз576116 0.5 1005403
17:00+24зюз68564 0.0 1005375
20:00+22з57735 0.0 1006170